BWA1485 MKJS-KMIA

Flight info

Callsign BWA1485
Flight time N/A
Altitude 34000
Route ALTIB UM779 ZEUSS VIICE2
Aircraft B38M/M-SDE1FGHILORVWXY/HB1

Departure

Time 2026-04-29 00:40
Airport Sangster International Airport (MKJS)

Arrival

Time N/A
Airport Miami International Airport (KMIA)
Time Latitude Longitude Altitude Speed Heading
2026-04-29 00:31 18.49993 -77.91614 42 ft 0 kts 204°
2026-04-29 00:32 18.49997 -77.91612 36 ft 4 kts 205°
2026-04-29 00:33 18.50020 -77.91597 36 ft 4 kts 224°
2026-04-29 00:33 18.50032 -77.91576 37 ft 4 kts 272°
2026-04-29 00:33 18.50027 -77.91565 35 ft 1 kts 334°
2026-04-29 00:33 18.50024 -77.91564 33 ft 0 kts 334°
2026-04-29 00:36 18.50028 -77.91566 36 ft 2 kts 334°
2026-04-29 00:36 18.50050 -77.91578 38 ft 6 kts 329°
2026-04-29 00:36 18.50060 -77.91625 37 ft 9 kts 252°
2026-04-29 00:36 18.50019 -77.91730 38 ft 22 kts 248°
2026-04-29 00:37 18.49946 -77.91895 41 ft 27 kts 245°
2026-04-29 00:37 18.49866 -77.92078 36 ft 28 kts 245°
2026-04-29 00:37 18.49784 -77.92265 42 ft 22 kts 245°
2026-04-29 00:37 18.49749 -77.92381 42 ft 13 kts 289°
2026-04-29 00:38 18.49817 -77.92430 42 ft 12 kts 336°
2026-04-29 00:38 18.49888 -77.92429 38 ft 10 kts 36°
2026-04-29 00:38 18.49913 -77.92385 42 ft 0 kts 64°
2026-04-29 00:38 18.49914 -77.92383 36 ft 1 kts 64°
2026-04-29 00:39 18.49935 -77.92333 41 ft 30 kts 65°
2026-04-29 00:39 18.50121 -77.91903 39 ft 97 kts 65°
2026-04-29 00:39 18.50482 -77.91076 42 ft 149 kts 65°
2026-04-29 00:39 18.50966 -77.89964 229 ft 177 kts 67°
2026-04-29 00:40 18.51498 -77.88759 767 ft 190 kts 63°
2026-04-29 00:40 18.52349 -77.87594 1365 ft 195 kts 46°
2026-04-29 00:40 18.53291 -77.86556 2227 ft 209 kts 49°
2026-04-29 00:40 18.54309 -77.85377 2803 ft 223 kts 50°
2026-04-29 00:41 18.55376 -77.84102 3098 ft 242 kts 50°
2026-04-29 00:41 18.56517 -77.82715 3602 ft 257 kts 50°
2026-04-29 00:41 18.57913 -77.81557 4427 ft 259 kts 25°
2026-04-29 00:41 18.59697 -77.81218 5214 ft 267 kts 356°
2026-04-29 00:42 18.61525 -77.81668 5927 ft 274 kts 347°
2026-04-29 00:42 18.63393 -77.82138 6668 ft 277 kts 350°
2026-04-29 00:42 18.65291 -77.82551 7363 ft 281 kts 350°
2026-04-29 00:42 18.67225 -77.82938 8069 ft 284 kts 350°
2026-04-29 00:43 18.69188 -77.83314 8747 ft 290 kts 351°
2026-04-29 00:43 18.71191 -77.83676 9460 ft 294 kts 351°
2026-04-29 00:43 18.73196 -77.84035 10139 ft 298 kts 351°
2026-04-29 00:43 18.75295 -77.84402 10542 ft 314 kts 351°
2026-04-29 00:44 18.77509 -77.84789 10885 ft 330 kts 351°
2026-04-29 00:44 18.79808 -77.85190 11472 ft 335 kts 351°
2026-04-29 00:44 18.82119 -77.85593 12192 ft 339 kts 351°
2026-04-29 00:44 18.84465 -77.86003 12901 ft 342 kts 351°
2026-04-29 00:45 18.86797 -77.86410 13627 ft 346 kts 351°
2026-04-29 00:45 18.89186 -77.86828 14278 ft 350 kts 351°
2026-04-29 00:45 18.91604 -77.87250 14939 ft 353 kts 350°
2026-04-29 00:45 18.94038 -77.87676 15577 ft 357 kts 350°
2026-04-29 00:46 18.96503 -77.88106 16210 ft 360 kts 350°
2026-04-29 00:46 18.98987 -77.88540 16844 ft 364 kts 349°
2026-04-29 00:46 19.01501 -77.88979 17425 ft 368 kts 349°
2026-04-29 00:46 19.04038 -77.89423 18047 ft 371 kts 349°
2026-04-29 00:47 19.06596 -77.89870 18580 ft 375 kts 349°
2026-04-29 00:47 19.09179 -77.90323 19119 ft 377 kts 348°
2026-04-29 00:47 19.11777 -77.90778 19607 ft 380 kts 348°
2026-04-29 00:47 19.14367 -77.91232 20096 ft 383 kts 348°
2026-04-29 00:48 19.17009 -77.91695 20588 ft 387 kts 348°
2026-04-29 00:48 19.19680 -77.92163 21066 ft 390 kts 348°
2026-04-29 00:48 19.22372 -77.92635 21561 ft 393 kts 347°
2026-04-29 00:48 19.25079 -77.93109 22036 ft 396 kts 347°
2026-04-29 00:49 19.27811 -77.93589 22507 ft 399 kts 347°
2026-04-29 00:49 19.30564 -77.94072 22970 ft 403 kts 347°
2026-04-29 00:49 19.33345 -77.94560 23428 ft 406 kts 347°
2026-04-29 00:49 19.36141 -77.95051 23831 ft 409 kts 347°
2026-04-29 00:50 19.38961 -77.95546 24221 ft 411 kts 346°
2026-04-29 00:50 19.41796 -77.96044 24642 ft 413 kts 347°
2026-04-29 00:50 19.44596 -77.96536 25040 ft 415 kts 347°
2026-04-29 00:50 19.47462 -77.97040 25413 ft 418 kts 347°